Location: *
(46.1866°S, 178.5290°W)
Time: 09:36:39
(UTC+00:00)

Cosmos 1461 - Pass Details

Date: 02 October 2021
Orbit: 520 x 642 km, 65.0° (Epoch: 20 October)

Event Time Altitude Azimuth Distance (km) Brightness Sun altitude
Rises 16:04:05 0° 216° (SW) 2,936 6.4 -14.0°
Reaches altitude 10° 16:06:22 10° 216° (SW) 2,037 5.6 -13.6°
Maximum altitude 16:11:01 87° 124° (SE) 654 3.2 -12.9°
Drops below altitude 10° 16:15:42 10° 36° (NE) 2,047 5.9 -12.1°
Sets 16:17:59 0° 35° (NE) 2,951 6.8 -11.7°
